Regional Weather Roundup
Issued by NWS Columbia, SC

Home | Current Version | Previous Version | Text Only | Print | Product List | Glossary On
Versions: 1 2 3 4 5 6 7 8 9 10 11 12 13 14 15 16 17 18 19 20 21 22 23 24 25 26 27 28 29 30 31 32 33 34 35 36 37 38 39 40 41 42 43 44 45 46 47 48 49 50
000
ASUS42 KCAE 281310
RWRCAE
REGIONAL WEATHER ROUNDUP
NATIONAL WEATHER SERVICE COLUMBIA SC
800 AM EST SAT FEB 28 2015

NOTE: "FAIR" INDICATES FEW OR NO CLOUDS BELOW 12,000 FEET WITH NO
SIGNIFICANT WEATHER AND/OR OBSTRUCTIONS TO VISIBILITY.

NOT ALL STATIONS ARE QUALITY CONTROLLED BY THE NATIONAL
WEATHER SERVICE. USE DATA WITH CAUTION...ESPECIALLY
DEWPOINT OBSERVATIONS.

SCZ001>056-GAZ040-063>065-077-281400-
...UPSTATE SOUTH CAROLINA...

CITY           SKY/WX    TMP DP  RH WIND       PRES   REMARKS
ANDERSON       MOSUNNY   34  18  52 NE14      30.62R WCI  25
LIBERTY        MOSUNNY   33  16  49 MISG      30.61R
SPARTANBURG    PTSUNNY   34  18  51 NE7       30.66R WCI  28
CLEMSON        MOSUNNY   35  14  42 NE13      30.64R WCI  26
GREENVILLE     MOSUNNY   32  14  47 NE9       30.63S WCI  24
GREENWOOD      PTSUNNY   33  19  56 NE8       30.64R WCI  26
GREER          PTSUNNY   31  16  54 NE10      30.63R WCI  22
ROCK HILL      PTSUNNY   31  16  54 NE8       30.67R WCI  23
CHESTER        PTSUNNY   34  18  51 NE9       30.68R WCI  26
LAURENS        MOSUNNY   32  25  74 NE8       30.65R WCI  25


...CENTRAL SOUTH CAROLINA...

CITY           SKY/WX    TMP DP  RH WIND       PRES   REMARKS
COLUMBIA APT   PTSUNNY   35  23  61 NE8       30.65R WCI  29
COLUMBIA OWENS MOSUNNY   34  22  61 VRB7      30.67R WCI  28
DARLINGTON     MOSUNNY   32  23  69 NE12      30.69R WCI  23
FLORENCE       MOSUNNY   32  26  78 NE12      30.66R HAZE    WCI  23
MCENTIRE ANGB  PTSUNNY   35  24  65 NE9       30.65R WCI  27
ORANGEBURG     MOSUNNY   36  27  69 NE10      30.62R WCI  28
SUMTER SHAW    MOSUNNY   32  26  77 NE13      30.64R WCI  23
NEWBERRY       PTSUNNY   32  21  64 NE10      30.67S WCI  24
AIKEN          FAIR      34  28  80 NE10      30.64R WCI  26
BARNWELL       FAIR      37  32  81 NE12      30.61R WCI  30
MANNING        FAIR      34  30  86 N8        30.64R WCI  27
CAMDEN         FAIR      32  21  64 N10       30.67R WCI  24
LANCASTER      PTSUNNY   32  16  51 NE8G16    30.67S WCI  25
WINNSBORO      MOSUNNY   32  21  64 NE10      30.65R WCI  24


...EASTERN AND COASTAL SOUTH CAROLINA...

CITY           SKY/WX    TMP DP  RH WIND       PRES   REMARKS
MYRTLE BEACH   PTSUNNY   34  27  75 NE16      30.63R WCI  23
N MYRTLE BCH   PTSUNNY   33  27  78 NE13      30.62R WCI  24
CONWAY         FAIR      32  30  93 N10       30.64R FOG     WCI  24
MARION         FAIR      32  28  86 NE12G20   30.67R WCI  23
HARTSVILLE     FAIR      32  27  80 NE10G17   30.67R WCI  24
FLORENCE       MOSUNNY   32  26  78 NE12      30.66R HAZE    WCI  23
DARLINGTON     MOSUNNY   32  23  69 NE12      30.69R WCI  23
CHARLESTON APT CLOUDY    38  32  79 NE13      30.58R WCI  30
MOUNT PLEASANT LGT RAIN  37  34  87 N7        30.59R WCI  32
WALTERBORO     CLOUDY    39  34  81 NE9       30.60R WCI  33
BEAUFORT       CLOUDY    42  37  82 NE18      30.55R


...EASTERN GEORGIA...

CITY           SKY/WX    TMP DP  RH WIND       PRES   REMARKS
AUGUSTA BUSH F MOSUNNY   37  28  70 NE8       30.62R WCI  31
AUGUSTA DANIEL MOSUNNY   39  26  59 NE9       30.62R WCI  33
THOMSON        MOSUNNY   37  32  82 NE9       30.64R WCI  31
WASHINGTON     FAIR      37  32  81 E6        30.59S WCI  33
CLAXTON        CLOUDY    43  37  81 NE12      30.53R
SYLVANIA       PTSUNNY   40  37  87 NE7       30.57R
STATESBORO     CLOUDY    41  37  85 NE7       30.56R
SAVANNAH       CLOUDY    44  36  73 NE9       30.53R


...SOUTHERN NORTH CAROLINA...

CITY           SKY/WX    TMP DP  RH WIND       PRES   REMARKS
CHARLOTTE      CLOUDY    30  13  49 NE10      30.69R WCI  21
MONROE         CLOUDY    30  18  60 NE13      30.67R WCI  20
WADESBORO      MOSUNNY   30  20  66 NE5       30.71R WCI  25
ROCKINGHAM       N/A     30  20  67 NE8       30.69R WCI  22
RUTHERFORDTON  CLOUDY    30  13  49 E7        30.67R WCI  23
ASHEVILLE      CLOUDY    29  17  61 S6        30.59R WCI  23

$$


USA.gov is the U.S. government's official web portal to all federal, state and local government web resources and services.